Wind_Speed
20 20 21 20 20 21 22 23 23 23 23 22 23 23 23 23 24 23 23 23 26 28 29 31 32 33 34 37 38 38 38 38 38 39 40 40 40 40 40 41 42 42 42 42
20 20 20 20 20 21 21 22 22 22 22 22 22 22 23 23 23 22 22 23 25 26 28 29 30 31 32 34 35 37 37 37 38 39 39 40 40 40 40 41 42 43 42 43
20 20 19 19 20 20 20 21 21 22 22 22 22 22 23 23 23 23 24 24 25 26 27 28 29 29 30 33 34 36 36 37 38 39 39 40 40 40 41 42 42 42 42 42
19 20 19 19 19 19 19 20 20 21 22 22 22 22 22 22 23 24 25 26 26 25 25 26 27 29 29 31 32 33 34 35 37 39 39 40 40 41 42 42 43 42 43 42
19 19 19 18 18 18 19 19 20 21 21 22 22 21 21 21 21 22 24 24 25 25 24 25 27 28 28 29 30 31 32 33 35 37 38 40 40 41 42 42 42 42 41 42
19 20 19 18 18 18 19 19 19 20 20 20 21 21 20 20 20 21 22 23 24 25 25 25 26 26 27 28 29 30 31 32 33 34 35 35 37 38 39 40 40 39 40 41
19 19 19 18 18 19 19 19 19 20 20 21 21 21 20 20 20 21 21 22 23 24 25 25 26 27 27 26 26 27 28 29 31 32 33 34 35 37 38 38 39 40 40 40
18 18 18 18 19 19 20 20 20 20 20 21 21 21 21 20 21 21 22 23 23 24 24 24 26 26 26 25 25 25 26 27 28 30 31 32 33 35 36 37 38 38 38 38
18 18 19 19 19 20 20 21 21 21 21 21 21 22 22 22 23 23 24 25 25 25 25 26 26 26 26 26 26 27 27 26 27 29 30 31 32 34 35 36 36 36 37 37
19 19 19 20 20 20 21 21 22 22 21 21 22 22 23 23 24 25 25 25 26 25 25 26 27 27 27 26 27 27 27 27 27 28 29 30 32 32 33 34 35 35 35 36
18 19 20 20 21 22 22 21 22 21 21 21 22 22 23 22 23 23 24 24 24 24 24 24 24 25 26 26 26 26 25 26 27 27 29 29 30 30 31 32 33 33 34 34
18 19 20 21 22 23 22 22 22 21 21 22 22 22 22 22 21 21 22 22 22 21 22 22 23 24 25 25 25 25 25 26 27 27 28 28 29 29 30 30 31 31 31 32
20 21 21 22 22 22 22 22 21 21 22 22 22 22 21 20 20 20 20 19 19 19 20 21 22 23 23 24 24 25 25 26 26 26 27 27 28 28 28 29 29 30 30 29
21 22 22 22 23 22 22 22 22 22 21 21 21 21 20 20 19 19 19 18 18 18 19 20 21 22 23 23 24 25 25 25 26 27 27 27 27 26 26 27 27 27 27 27
22 23 23 23 23 23 22 22 22 21 21 20 20 20 20 19 19 19 19 19 18 19 19 19 19 20 21 22 22 23 23 23 24 24 25 25 24 24 24 24 24 24 24 24
21 22 23 22 22 22 21 21 21 20 20 20 19 19 19 18 18 18 18 18 18 18 17 17 17 18 19 20 21 21 21 21 21 22 23 23 23 23 23 23 23 23 23 24
22 23 22 21 20 20 20 20 20 19 19 19 18 18 18 18 17 17 17 17 16 16 16 16 16 16 17 18 18 18 19 20 20 21 22 22 22 21 21 21 22 22 22 22
22 22 21 20 19 19 19 19 19 19 18 18 18 18 18 17 17 17 17 16 16 16 16 17 17 17 17 17 16 17 17 18 19 19 19 19 19 19 20 20 20 20 21 21
21 20 19 19 18 17 17 17 17 17 17 17 17 17 17 17 17 17 17 16 16 16 16 16 17 17 17 17 16 16 16 16 17 17 17 17 18 18 19 19 19 19 20 20
19 19 18 18 17 16 17 17 17 17 17 17 17 17 17 17 17 17 17 17 16 16 16 17 17 17 17 17 17 16 16 16 15 15 16 16 17 18 18 18 18 18 18 19
19 19 18 17 17 17 17 17 17 18 18 17 17 17 17 17 17 17 17 17 17 16 16 16 16 16 16 16 16 16 16 15 15 15 16 17 17 17 17 18 18 18 19 19
20 19 19 18 17 17 17 17 17 17 17 17 17 17 17 17 17 16 16 16 16 16 16 16 15 15 15 14 14 15 15 15 15 16 16 16 16 17 17 16 17 18 18 18
20 20 20 19 18 18 18 17 17 17 16 16 17 17 17 17 17 16 16 16 16 16 15 15 15 14 14 14 14 14 15 15 15 16 16 16 16 16 16 16 16 16 16 16
20 20 20 19 18 18 18 18 18 17 17 16 16 16 16 16 15 16 16 16 16 16 15 14 14 13 13 13 14 14 15 15 15 15 15 15 16 16 16 16 15 15 15 14
20 20 19 19 19 19 19 19 19 18 17 17 16 16 15 15 15 15 14 15 15 15 14 14 13 13 13 14 14 14 14 14 14 14 14 14 15 15 15 15 15 15 14 14
20 20 20 20 20 19 19 19 19 18 17 17 17 16 15 15 15 14 14 14 14 14 14 14 14 14 14 14 14 14 14 14 14 14 13 13 13 13 13 13 13 14 14 14
20 20 20 20 20 20 19 18 18 17 17 16 16 16 15 15 14 14 14 14 14 14 14 14 14 15 15 14 14 14 14 14 13 12 12 12 12 12 13 13 13 13 13 13
Wind_Direction
281 282 281 282 282 281 280 282 281 283 281 279 277 274 272 268 267 266 263 260 256 255 254 254 254 253 252 250 248 246 245 245 243 243 244 245 245 246 247 248 249 251 252 254
281 282 280 281 282 282 283 283 282 283 283 281 278 277 274 270 269 267 265 260 257 257 257 255 254 254 253 250 246 246 245 244 243 244 245 246 245 247 248 249 250 251 253 255
283 283 281 279 281 283 285 283 282 283 284 283 280 278 275 273 270 268 265 262 260 259 259 258 255 255 253 251 248 246 246 244 243 244 246 246 246 248 250 250 251 252 254 255
285 283 282 285 284 283 286 287 287 286 284 284 282 279 277 274 272 268 266 267 264 262 260 258 258 256 255 253 249 246 246 245 245 246 248 249 249 249 249 249 251 253 254 255
285 284 284 285 287 287 288 287 287 287 286 285 283 281 280 277 272 268 266 266 264 263 263 262 262 261 259 253 250 248 248 249 248 247 247 248 248 248 248 249 251 252 253 255
283 286 287 288 289 290 290 288 289 288 286 285 284 283 280 277 274 271 269 267 265 262 261 263 262 260 260 257 254 251 251 251 251 250 248 248 248 248 248 248 249 251 254 255
281 283 286 287 290 292 291 292 291 288 286 284 284 285 283 280 277 274 271 268 266 264 263 263 262 261 260 258 255 254 254 253 253 253 251 250 250 249 250 250 252 253 255 257
281 283 287 289 287 288 290 290 291 291 288 284 284 283 282 281 279 275 272 269 268 267 265 265 263 261 260 258 257 256 256 255 253 253 253 252 253 251 252 253 254 256 256 257
281 284 286 288 288 287 288 290 290 290 289 286 285 284 282 280 278 275 272 270 268 267 266 266 265 262 260 260 260 257 258 257 255 255 254 254 254 254 254 254 254 255 256 257
280 282 285 287 288 289 289 290 290 291 290 287 287 287 284 281 278 276 273 271 269 267 266 265 264 261 259 260 262 261 260 258 258 258 258 258 257 257 256 256 256 258 259 260
282 282 283 286 287 288 290 290 290 289 288 288 289 289 287 284 281 277 274 270 268 266 265 264 263 262 261 261 262 263 263 262 262 261 261 260 259 258 258 258 259 260 260 260
284 284 285 288 287 286 287 288 289 288 287 288 289 288 287 286 283 279 276 272 268 265 265 265 265 265 262 262 261 262 263 263 263 263 262 261 260 260 260 260 260 260 260 260
286 287 287 287 287 286 284 286 287 288 288 287 288 288 286 285 283 282 279 276 272 269 267 266 266 266 265 262 261 261 262 262 262 262 264 264 264 264 263 261 261 260 260 259
287 289 288 286 285 285 284 284 285 288 289 289 288 286 286 285 284 282 281 278 275 273 271 269 268 267 267 266 264 264 263 263 263 264 265 267 267 265 264 263 262 261 258 257
289 290 290 287 284 282 282 282 283 286 286 287 287 286 287 286 283 282 281 280 276 274 272 272 271 270 269 268 267 267 266 266 266 266 266 267 267 266 265 264 262 260 258 258
292 293 293 290 286 281 279 280 281 282 284 286 287 287 287 286 285 282 282 282 278 274 273 273 272 273 273 271 269 267 265 265 266 267 267 267 266 264 264 261 259 258 259 259
294 296 294 290 288 284 281 281 280 282 284 286 286 287 287 285 285 283 282 281 280 278 275 274 276 276 276 274 271 268 265 265 267 268 268 267 265 263 262 260 259 259 260 259
296 298 297 294 292 289 285 283 281 282 283 284 285 286 286 285 284 284 283 281 279 280 278 276 276 277 278 276 273 271 270 269 269 268 267 265 263 261 259 259 261 260 259 258
296 298 297 296 295 289 287 285 283 282 282 283 283 284 284 284 284 284 283 280 278 279 280 280 278 277 275 273 271 271 271 271 269 268 266 264 262 261 260 260 260 258 257 257
295 296 297 296 295 293 289 287 285 282 281 283 284 284 283 283 284 284 283 282 281 281 281 282 282 280 277 274 271 269 269 269 267 266 266 264 263 263 261 259 257 256 255 256
295 295 296 296 295 293 291 290 287 284 282 283 284 283 282 282 283 284 284 282 281 282 283 284 284 281 278 275 272 270 269 267 267 268 268 265 263 262 260 258 257 256 256 256
292 293 294 295 295 295 293 291 288 286 285 283 284 284 282 282 282 283 283 284 282 283 284 286 285 281 277 278 275 271 269 270 270 271 269 267 264 261 259 259 260 259 257 256
290 290 292 293 292 292 290 289 288 288 286 285 286 287 283 281 282 281 281 282 283 283 284 284 283 279 276 277 278 276 274 272 272 272 270 268 266 263 261 261 261 257 254 254
290 289 290 290 290 289 288 287 288 286 284 285 287 287 284 282 281 281 281 282 282 281 281 280 277 275 276 277 278 279 278 275 274 275 273 267 264 262 260 259 257 254 251 251
289 288 287 287 288 288 287 286 285 284 282 283 284 285 283 281 280 281 282 281 280 278 277 276 274 274 276 279 279 280 280 278 275 276 274 266 261 257 256 255 252 250 247 246
288 288 288 287 287 287 287 285 283 281 281 281 281 281 280 279 278 278 279 280 279 277 275 274 272 273 275 276 276 277 277 277 278 275 271 264 258 253 251 250 249 247 245 247
286 286 287 287 285 285 286 285 281 278 277 278 278 278 278 277 276 276 277 279 279 278 276 274 273 273 274 275 275 275 274 273 274 272 266 259 253 249 248 246 246 246 246 246
Height
5576 5574 5573 5572 5571 5570 5568 5566 5565 5564 5562 5561 5558 5557 5556 5555 5555 5554 5554 5554 5554 5555 5556 5556 5557 5558 5560 5562 5564 5567 5569 5572 5574 5577 5580 5583 5586 5589 5592 5595 5598 5601 5604 5606
5570 5569 5567 5566 5565 5564 5562 5560 5559 5557 5556 5554 5552 5551 5550 5549 5548 5547 5547 5547 5548 5548 5548 5548 5549 5550 5551 5552 5554 5557 5559 5562 5564 5567 5570 5572 5576 5579 5582 5585 5588 5591 5594 5596
5564 5563 5561 5561 5560 5558 5556 5555 5553 5551 5550 5548 5546 5545 5543 5542 5542 5541 5541 5541 5540 5540 5540 5540 5540 5541 5542 5543 5545 5547 5550 5552 5554 5557 5559 5562 5565 5568 5572 5575 5578 5580 5583 5585
5558 5558 5556 5558 5554 5552 5551 5549 5547 5545 5543 5541 5540 5538 5537 5536 5535 5535 5534 5533 5533 5533 5533 5533 5533 5533 5533 5534 5535 5538 5540 5542 5544 5546 5549 5552 5554 5558 5561 5564 5567 5570 5572 5574
5552 5550 5550 5551 5548 5546 5545 5544 5541 5539 5537 5535 5534 5532 5531 5530 5529 5528 5528 5527 5526 5526 5526 5526 5526 5525 5525 5526 5527 5529 5531 5532 5534 5536 5539 5541 5544 5547 5549 5552 5556 5558 5561 5563
5546 5545 5544 5545 5543 5540 5540 5538 5536 5533 5531 5529 5528 5527 5527 5525 5523 5522 5521 5520 5520 5519 5519 5519 5519 5518 5518 5519 5520 5521 5522 5524 5525 5527 5529 5531 5534 5536 5539 5542 5544 5547 5550 5552
5540 5539 5539 5539 5537 5535 5535 5533 5530 5527 5525 5524 5522 5521 5520 5519 5517 5516 5515 5514 5513 5513 5512 5512 5512 5512 5512 5512 5513 5514 5514 5515 5517 5518 5520 5522 5524 5527 5529 5531 5534 5537 5539 5541
5535 5534 5536 5532 5531 5530 5528 5526 5524 5522 5520 5518 5517 5515 5514 5512 5511 5510 5509 5508 5507 5506 5506 5505 5505 5505 5505 5505 5506 5506 5507 5508 5509 5510 5512 5514 5515 5517 5519 5522 5524 5526 5528 5530
5530 5531 5528 5526 5525 5523 5521 5520 5518 5516 5514 5512 5510 5509 5507 5506 5504 5503 5502 5501 5500 5499 5499 5498 5497 5497 5498 5498 5498 5499 5500 5500 5501 5502 5503 5505 5506 5508 5510 5511 5513 5515 5517 5519
5524 5524 5522 5520 5519 5517 5515 5514 5512 5510 5508 5506 5504 5502 5500 5499 5497 5495 5494 5493 5492 5492 5491 5491 5490 5490 5490 5491 5491 5491 5492 5493 5494 5494 5495 5496 5497 5498 5500 5501 5503 5504 5506 5508
5517 5517 5516 5515 5513 5511 5509 5507 5505 5503 5502 5500 5498 5495 5493 5491 5490 5488 5486 5485 5485 5484 5484 5483 5482 5483 5483 5483 5483 5484 5485 5485 5486 5487 5487 5488 5489 5490 5491 5492 5493 5495 5497 5498
5512 5511 5509 5508 5506 5504 5503 5501 5499 5497 5495 5493 5491 5489 5487 5485 5483 5481 5479 5478 5478 5477 5477 5476 5476 5476 5476 5476 5476 5477 5478 5478 5479 5479 5479 5480 5481 5482 5482 5483 5484 5485 5487 5489
5505 5504 5502 5501 5499 5497 5495 5494 5492 5490 5488 5486 5484 5482 5480 5478 5476 5474 5473 5472 5471 5471 5470 5470 5469 5469 5469 5469 5470 5470 5470 5471 5471 5472 5472 5472 5473 5473 5474 5475 5475 5476 5478 5479
5498 5497 5496 5494 5492 5490 5488 5487 5485 5483 5481 5479 5478 5476 5474 5472 5470 5468 5467 5466 5465 5465 5464 5463 5463 5463 5462 5462 5463 5463 5463 5463 5464 5464 5465 5465 5465 5465 5466 5466 5467 5467 5469 5470
5492 5490 5488 5486 5484 5483 5481 5479 5478 5477 5475 5473 5471 5469 5467 5466 5464 5462 5461 5460 5459 5459 5458 5457 5457 5456 5456 5455 5455 5455 5455 5456 5456 5456 5457 5457 5457 5457 5458 5458 5459 5460 5461 5463
5485 5483 5480 5478 5476 5475 5474 5472 5471 5470 5468 5466 5464 5463 5461 5460 5458 5457 5455 5454 5453 5453 5452 5451 5451 5450 5449 5449 5449 5448 5448 5449 5449 5449 5449 5450 5450 5450 5450 5451 5452 5453 5454 5455
5478 5476 5474 5471 5469 5468 5466 5465 5464 5462 5461 5460 5458 5457 5455 5454 5453 5451 5450 5449 5448 5447 5446 5446 5445 5445 5444 5443 5443 5442 5442 5442 5442 5442 5442 5442 5443 5443 5444 5444 5445 5446 5447 5448
5471 5469 5467 5464 5463 5461 5459 5458 5457 5456 5455 5454 5452 5451 5450 5448 5447 5446 5445 5444 5443 5442 5441 5440 5440 5439 5438 5438 5437 5437 5437 5436 5436 5436 5436 5436 5436 5436 5437 5437 5438 5439 5440 5441
5465 5462 5460 5458 5456 5454 5453 5452 5451 5450 5449 5448 5447 5445 5444 5443 5442 5441 5440 5439 5438 5437 5436 5435 5434 5434 5433 5432 5432 5431 5431 5431 5430 5430 5430 5430 5430 5431 5431 5431 5432 5433 5434 5435
5458 5456 5454 5452 5450 5449 5447 5446 5445 5444 5443 5442 5441 5440 5438 5437 5436 5435 5434 5433 5432 5431 5430 5429 5429 5428 5427 5427 5426 5426 5426 5425 5425 5425 5425 5425 5425 5425 5425 5425 5426 5427 5428 5428
5452 5450 5448 5446 5444 5443 5441 5440 5439 5438 5436 5435 5435 5433 5432 5431 5430 5429 5428 5427 5426 5425 5425 5424 5423 5422 5422 5421 5421 5420 5420 5420 5419 5419 5419 5419 5419 5419 5419 5420 5420 5421 5422 5422
5445 5443 5442 5440 5438 5437 5435 5434 5432 5431 5430 5429 5428 5427 5426 5425 5424 5423 5422 5422 5421 5420 5419 5418 5417 5417 5416 5416 5415 5415 5415 5414 5414 5414 5413 5413 5413 5414 5414 5414 5414 5415 5416 5416
5438 5436 5435 5434 5432 5430 5429 5428 5426 5425 5424 5423 5422 5421 5420 5419 5418 5418 5417 5416 5415 5414 5413 5413 5412 5411 5411 5411 5410 5410 5409 5409 5408 5408 5408 5407 5407 5408 5408 5409 5409 5409 5410 5411
5431 5429 5428 5427 5425 5424 5423 5421 5420 5419 5418 5417 5416 5415 5414 5413 5413 5412 5411 5410 5409 5408 5407 5407 5406 5406 5406 5406 5405 5405 5404 5404 5403 5402 5402 5402 5402 5402 5403 5403 5404 5404 5405 5406
5424 5422 5421 5420 5419 5417 5416 5415 5414 5413 5411 5411 5410 5409 5408 5408 5407 5406 5405 5404 5403 5402 5402 5402 5401 5401 5401 5401 5400 5400 5399 5398 5398 5397 5396 5396 5396 5397 5397 5398 5399 5400 5400 5401
5417 5415 5414 5413 5412 5410 5409 5408 5407 5406 5405 5405 5404 5403 5402 5402 5401 5401 5400 5399 5398 5398 5397 5397 5397 5396 5396 5396 5395 5395 5394 5394 5393 5392 5392 5391 5391 5392 5392 5393 5394 5395 5396 5397
5409 5408 5407 5406 5404 5403 5402 5401 5400 5399 5399 5398 5398 5398 5397 5396 5396 5395 5395 5394 5394 5393 5392 5392 5391 5391 5391 5390 5390 5389 5389 5388 5388 5388 5387 5387 5387 5388 5388 5389 5390 5391 5392 5392